Date String (YYYY-MM-DD hh:mm:ss) UTC,Instrument flags,Ambient pressure (hPa),Sample flow (lpm),Bypass flow (lpm),Sample temperature (°C),Ambient temperature (°C),ASC tube jacket temperature (°C),LED temperature (°C),Box temperature (°C),Sample RH (%),Span deviation,Mass concentration (μg/m³),Mass concentration (μg/m³),Mass concentration (μg/m³)
DateTimeUTC,F1_M11,P_M11,Q1_M11,Q2_M11,T1_M11,T2_M11,T3_M11,T4_M11,T5_M11,U1_M11,ZSPAN_M11,X0_M11,X2_M11,X1_M11
2021-12-27 01:00:00,,0813.4,5.01,0.00,21.8,21.5,00.0,30.9,23.4,12.7,0000.0,0006.37,0000.51,0000.21
2021-12-27 01:01:00,,0813.4,4.99,0.00,21.7,21.4,00.0,30.9,23.3,12.6,0000.0,0006.69,0000.50,0000.21
2021-12-27 01:02:00,,0813.5,5.01,0.00,21.7,21.2,00.0,30.8,23.2,12.6,0000.0,0006.23,0000.51,0000.20
2021-12-27 01:03:00,,0813.5,4.99,0.00,21.6,21.1,00.0,30.8,23.2,12.5,0000.0,0005.76,0000.55,0000.20
2021-12-27 01:04:00,,0813.4,5.00,0.00,21.6,20.9,00.0,30.8,23.1,12.6,0000.0,0005.47,0000.55,0000.20
2021-12-27 01:05:00,,0813.4,5.02,0.00,21.5,20.9,00.0,30.8,23.1,12.5,0000.0,0005.08,0000.55,0000.20
2021-12-27 01:06:00,,0813.4,4.99,0.00,21.5,20.8,00.0,30.7,23.0,12.5,0000.0,0004.92,0000.56,0000.19
2021-12-27 01:07:00,,0813.3,5.00,0.00,21.4,20.7,00.0,30.7,22.9,12.3,0000.0,0005.33,0000.57,0000.19
2021-12-27 01:08:00,,0813.4,5.01,0.00,21.4,20.6,00.0,30.7,22.9,12.2,0000.0,0005.13,0000.59,0000.19
2021-12-27 01:09:00,,0813.3,4.98,0.00,21.3,20.5,00.0,30.6,22.8,11.9,0000.0,0004.36,0000.58,0000.19
2021-12-27 01:10:00,,0813.4,5.01,0.00,21.3,20.4,00.0,30.6,22.8,11.9,0000.0,0004.08,0000.59,0000.18
2021-12-27 01:11:00,,0813.3,5.01,0.00,21.2,20.4,00.0,30.6,22.7,11.9,0000.0,0002.79,0000.56,0000.18
2021-12-27 01:12:00,,0813.3,5.00,0.00,21.3,21.1,00.0,30.6,23.0,11.9,0000.0,0002.35,0000.54,0000.19
2021-12-27 01:13:00,,0813.3,5.00,0.00,21.5,22.1,00.0,30.6,23.4,11.6,0000.0,0002.30,0000.55,0000.19
2021-12-27 01:14:00,,0813.3,4.99,0.00,21.6,22.6,00.0,30.6,23.6,11.3,0000.0,0002.39,0000.53,0000.19
2021-12-27 01:15:00,,0813.3,5.01,0.00,21.6,22.3,00.0,30.6,23.5,11.3,0000.0,0002.49,0000.54,0000.19
2021-12-27 01:16:00,,0813.3,4.99,0.00,21.6,21.9,00.0,30.6,23.3,11.4,0000.0,0002.43,0000.54,0000.20
2021-12-27 01:17:00,,0813.4,5.01,0.00,21.5,21.6,00.0,30.6,23.1,11.5,0000.0,0002.37,0000.54,0000.21
2021-12-27 01:18:00,,0813.4,4.99,0.00,21.5,21.4,00.0,30.6,23.0,11.5,0000.0,0002.04,0000.53,0000.21
2021-12-27 01:19:00,,0813.5,4.98,0.00,21.4,21.2,00.0,30.6,23.0,11.6,0000.0,0001.30,0000.53,0000.22
2021-12-27 01:20:00,,0813.4,5.01,0.00,21.4,21.0,00.0,30.6,22.9,11.6,0000.0,0001.28,0000.53,0000.22
2021-12-27 01:21:00,,0813.5,5.00,0.00,21.4,20.8,00.0,30.5,22.8,11.5,0000.0,0001.24,0000.52,0000.23
2021-12-27 01:22:00,,0813.4,4.99,0.00,21.3,20.7,00.0,30.5,22.8,11.5,0000.0,0001.27,0000.53,0000.23
2021-12-27 01:23:00,,0813.5,4.99,0.00,21.3,20.6,00.0,30.5,22.8,11.5,0000.0,0001.27,0000.52,0000.23
2021-12-27 01:24:00,,0813.5,5.00,0.00,21.2,20.6,00.0,30.5,22.7,11.3,0000.0,0002.96,0000.49,0000.23
2021-12-27 01:25:00,,0813.5,4.99,0.00,21.2,20.5,00.0,30.4,22.7,11.4,0000.0,0003.93,0000.50,0000.23
2021-12-27 01:26:00,,0813.5,5.01,0.00,21.2,20.5,00.0,30.4,22.6,11.4,0000.0,0003.88,0000.49,0000.23
2021-12-27 01:27:00,,0813.6,4.98,0.00,21.1,20.4,00.0,30.4,22.6,11.5,0000.0,0004.03,0000.54,0000.24
2021-12-27 01:28:00,,0813.6,5.01,0.00,21.1,20.6,00.0,30.4,22.7,11.6,0000.0,0004.09,0000.57,0000.25
2021-12-27 01:29:00,,0813.7,5.00,0.00,21.3,21.5,00.0,30.4,23.0,11.5,0000.0,0004.12,0000.58,0000.25
2021-12-27 01:30:00,,0813.6,4.99,0.00,21.4,22.4,00.0,30.4,23.4,11.5,0000.0,0004.09,0000.57,0000.25
2021-12-27 01:31:00,,0813.8,5.01,0.00,21.6,22.4,00.0,30.5,23.5,11.4,0000.0,0004.14,0000.58,0000.25
2021-12-27 01:32:00,,0813.6,5.00,0.00,21.6,22.1,00.0,30.5,23.3,11.4,0000.0,0004.24,0000.57,0000.25
2021-12-27 01:33:00,,0813.6,4.99,0.00,21.5,21.8,00.0,30.5,23.2,11.3,0000.0,0004.26,0000.58,0000.25
2021-12-27 01:34:00,,0814.1,5.01,0.00,21.5,21.5,00.0,30.5,23.1,11.4,0000.0,0004.28,0000.60,0000.25
2021-12-27 01:35:00,,0814.1,4.99,0.00,21.4,21.3,00.0,30.5,23.0,11.3,0000.0,0003.21,0000.61,0000.26
2021-12-27 01:36:00,,0813.8,5.01,0.00,21.4,21.1,00.0,30.5,22.9,11.3,0000.0,0001.99,0000.61,0000.26
2021-12-27 01:37:00,,0813.8,5.01,0.00,21.3,21.0,00.0,30.4,22.8,11.4,0000.0,0002.09,0000.65,0000.27
2021-12-27 01:38:00,,0814.0,4.98,0.00,21.3,20.8,00.0,30.4,22.8,11.3,0000.0,0003.29,0000.65,0000.27
2021-12-27 01:39:00,,0814.1,5.01,0.00,21.2,20.7,00.0,30.4,22.7,11.3,0000.0,0004.60,0000.61,0000.26
2021-12-27 01:40:00,,0814.2,5.00,0.00,21.2,20.6,00.0,30.4,22.7,11.3,0000.0,0006.84,0000.62,0000.27
2021-12-27 01:41:00,,0814.3,4.99,0.00,21.2,20.5,00.0,30.4,22.6,11.4,0000.0,0007.18,0000.65,0000.29
2021-12-27 01:42:00,,0813.9,5.00,0.00,21.1,20.5,00.0,30.3,22.6,11.4,0000.0,0007.17,0000.66,0000.30
2021-12-27 01:43:00,,0813.9,5.00,0.00,21.1,20.4,00.0,30.3,22.5,11.4,0000.0,0007.09,0000.67,0000.30
2021-12-27 01:44:00,,0813.8,5.02,0.00,21.0,20.3,00.0,30.3,22.5,11.4,0000.0,0007.01,0000.66,0000.30
2021-12-27 01:45:00,,0813.9,5.00,0.00,21.0,20.6,00.0,30.3,22.6,11.4,0000.0,0006.96,0000.63,0000.30
2021-12-27 01:46:00,,0814.0,5.01,0.00,21.2,21.5,00.0,30.3,23.0,11.3,0000.0,0007.29,0000.66,0000.29
2021-12-27 01:47:00,,0814.3,4.98,0.00,21.4,22.4,00.0,30.4,23.3,11.2,0000.0,0007.78,0000.64,0000.29
2021-12-27 01:48:00,,0814.3,5.01,0.00,21.5,22.6,00.0,30.4,23.5,11.1,0000.0,0007.84,0000.63,0000.29
2021-12-27 01:49:00,,0814.4,5.00,0.00,21.6,22.3,00.0,30.4,23.4,11.1,0000.0,0007.45,0000.66,0000.30
2021-12-27 01:50:00,,0814.2,5.00,0.00,21.5,22.0,00.0,30.4,23.2,11.1,0000.0,0005.83,0000.66,0000.30
2021-12-27 01:51:00,,0814.2,5.01,0.00,21.5,21.7,00.0,30.4,23.1,11.1,0000.0,0003.90,0000.67,0000.30
2021-12-27 01:52:00,,0814.3,4.98,0.00,21.5,21.4,00.0,30.4,23.1,11.1,0000.0,0003.02,0000.66,0000.29
2021-12-27 01:53:00,,0814.4,5.01,0.00,21.4,21.3,00.0,30.4,23.0,11.1,0000.0,0004.12,0000.65,0000.29
2021-12-27 01:54:00,,0814.4,5.00,0.00,21.4,21.1,00.0,30.4,22.9,11.1,0000.0,0004.42,0000.67,0000.29
2021-12-27 01:55:00,,0814.0,5.01,0.00,21.3,20.9,00.0,30.4,22.9,11.1,0000.0,0004.59,0000.70,0000.29
2021-12-27 01:56:00,,0814.0,4.99,0.00,21.3,20.8,00.0,30.4,22.8,11.1,0000.0,0005.29,0000.72,0000.30
2021-12-27 01:57:00,,0814.3,5.00,0.00,21.3,20.7,00.0,30.4,22.8,11.1,0000.0,0005.54,0000.77,0000.32
2021-12-27 01:58:00,,0814.4,5.01,0.00,21.2,20.7,00.0,30.4,22.7,10.9,0000.0,0004.35,0000.86,0000.34
2021-12-27 01:59:00,,0814.3,4.99,0.00,21.2,20.6,00.0,30.4,22.7,10.7,0000.0,0004.69,0000.88,0000.34
